Location: Campestrin
(46.4667°N, 11.7167°E)
Time: 15:44:15
(UTC+00:00)

Lacrosse 5 rocket - Pass Details

Date: 18 April 2021
Orbit: 461 x 634 km, 57.0° (Epoch: 07 May)

Event Time Altitude Azimuth Distance (km) Brightness Sun altitude
Rises 21:06:05 0° 302° (WNW) 2,743 5.9 -25.8°
Reaches altitude 10° 21:08:43 10° 318° (NW) 1,881 5.0 -26.1°
Maximum altitude 21:12:01 21° 9° (N) 1,335 3.7 -26.4°
Enters shadow 21:14:17 15° 47° (NE) 1,639 3.8 -26.6°
